Location: Carson
(33.8314°N, 118.2820°W)
Time: 22:17:55
(UTC+00:00)

Cosmos 1633 - Pass Details

Date: 23 November 2020
Orbit: 462 x 479 km, 82.5° (Epoch: 20 January)

Event Time Altitude Azimuth Distance (km) Brightness Sun altitude
Rises 14:06:54 0° 225° (SW) 2,479 5.9 -5.9°
Maximum altitude 14:11:40 14° 284° (WNW) 1,403 4.3 -5.0°
Drops below altitude 10° 14:13:30 10° 316° (NW) 1,614 4.6 -4.6°
Sets 14:16:27 0° 344° (NNW) 2,495 5.8 -4.1°
